Regional Weather Roundup
Issued by NWS

Home | Current Version | Previous Version | Graphics & Text | Print | Product List | Glossary On
Versions: 1 2 3 4 5 6 7 8 9 10 11 12 13 14 15 16 17 18 19 20 21 22 23 24 25 26 27 28 29 30 31 32 33 34 35 36 37 38 39 40 41 42 43 44 45 46 47 48 49 50
000
ASUS45 KTFX 200119
RWRMT
MONTANA HOURLY WEATHER ROUNDUP
NATIONAL WEATHER SERVICE GREAT FALLS MT
719 PM MDT TUE AUG 19 2014

NOTE: "FAIR" INDICATES FEW OR NO CLOUDS BELOW 12000 FEET WITH NO
SIGNIFICANT WEATHER AND/OR OBSTRUCTIONS TO VISIBILITY.

* THESE STATIONS ARE NOT UNDER NWS QUALITY CONTROL. THEY DO NOT
   REPORT WEATHER SUCH AS PRECIPITATION OR FOG.

MTZ001>007-043-200200-
WEST OF THE DIVIDE
CITY           SKY/WX    TMP DP  RH WIND       PRES   REMARKS
KALISPELL      CLOUDY    72  55  55 SE7       29.74S
MISSOULA       MOCLDY    79  43  28 N17G32    29.76S
BUTTE          CLOUDY    70  37  30 E12       29.88F
MULLAN PASS    CLOUDY    64  48  56 CALM      29.91F
* LINCOLN      N/A       82  38  21 W6G14      N/A
* LOOKOUT PASS N/A       72  55  55 NW2        N/A
* POLSON       N/A       63  56  78 S1G6       N/A
* RONAN APT    CLOUDY    73  54  51 E5         N/A
* SEELEY LAKE  N/A       78  41  27 N12G28     N/A
* THOMP F APT  CLOUDY    65  40  40 NW11G27    N/A
* YAAK HILL    N/A       82  41  23 SW1G7      N/A
$$

MTZ008-052>055-200200-
SOUTHWEST MONTANA
CITY           SKY/WX    TMP DP  RH WIND       PRES   REMARKS
BOZEMAN        CLOUDY    68  54  61 W13       29.87R
DILLON         CLOUDY    64  48  56 SE10      29.89S
W YELLOWSTONE  CLOUDY    57  46  67 W3        29.96F
* THREE FORKS  CLOUDY    70  57  64 E8         N/A
* BOULDER HILL N/A       72  37  28 S4G11      N/A
* MONIDA PASS  N/A       54  49  83 W20        N/A
* RAYNOLDS PAS N/A       64  43  47 SE15       N/A
* WHITEHALL    N/A       69  49  49 SE5G16     N/A
* WISE RIVER   N/A       67  43  42 NW7G16     N/A
$$

MTZ009>010-012-014-046-048-049-054-200200-
EAST SLOPES AND CENTRAL MONTANA
CITY           SKY/WX    TMP DP  RH WIND       PRES   REMARKS
CUT BANK       MOCLDY    70  46  42 W33G43    29.73R
GREAT FALLS    PTCLDY    84  37  19 W5        29.68F
HELENA         CLOUDY    84  37  19 W12       29.71S
MALMSTROM AFB  PTCLDY    84  37  19 W6        29.69S
* CONRAD       MOCLDY    75  59  58 N/A        N/A
* DEARBORN     N/A       86  33  15 S14G24     N/A
* EAST GLACIER N/A       55  51  86 NW6G12     N/A
* MONARCH      N/A       77  33  20 NW11G17    N/A
* PENDROY      N/A       77  42  29 NW24G31    N/A
* ROGERS PASS  N/A       75  36  24 NW2G12     N/A
* SAINT MARY   N/A       67  44  44 S6G14      N/A
* SWEET GRASS  N/A       78  48  35 S4         N/A
* WHITE SULPH  N/A       71  32  24 S20G28     N/A
$$

MTZ011-013-016-021-035-040-045-047-050-051-200200-
NORTH CENTRAL MONTANA
CITY           SKY/WX    TMP DP  RH WIND       PRES   REMARKS
HAVRE          PTCLDY    88  45  22 NW13      29.61F
LEWISTOWN      CLOUDY    82  39  22 NW3       29.73S
* FORT BENTON  PTCLDY    88  45  22 N8        29.64R
* CHESTER      N/A       83  44  25 N2         N/A
* DENTON       N/A       87  39  18 W11        N/A
* GEYSER       N/A       84  39  20 NW10G16    N/A
* JUDITH GAP   N/A       77  37  24 W20G29     N/A
* LOMA         N/A       87  45  23 N18        N/A
$$

MTZ017>020-022>027-061-062-200200-
NORTHEAST MONTANA
CITY           SKY/WX    TMP DP  RH WIND       PRES   REMARKS
GLASGOW        CLEAR     91  43  19 CALM      29.59S
GLENDIVE       PTCLDY    88  55  33 SE5       29.65S
SIDNEY         PTCLDY    84  61  46 SE7       29.63F HI  84
WOLF POINT     PTCLDY    91  46  21 SW8       29.59S
* BEAVER HILL  N/A       83  56  40 SE17       N/A   HI  82
* CIRCLE       N/A       90  50  25 N/A        N/A
* SACO         N/A       90  43  19 SW9        N/A
$$

MTZ028>042-056>058-200200-
SOUTHCENTRAL AND SOUTHEAST MONTANA
CITY           SKY/WX    TMP DP  RH WIND       PRES   REMARKS
BAKER          MOCLDY    82  57  43 SE12      29.71S HI  82
BILLINGS       CLOUDY    82  43  25 SW16      29.74S
LIVINGSTON     CLOUDY    70  46  42 VRB5      29.89R
MILES CITY     CLOUDY    88  43  21 NW3       29.63F
* LAUREL APT   CLOUDY    81  45  28 S9         N/A
* ROUNDUP APT  CLOUDY    86  39  19 S11        N/A
* HYSHAM       N/A       86  36  17 N/A        N/A
* LAME DEER    N/A       83  42  23 N/A        N/A
* REED POINT   N/A       79  42  27 W18G24     N/A
* ROSCOE HILL  N/A       69  41  36 SE12G18    N/A
$$

REGIONAL REPORTS...DAKOTAS
CITY           SKY/WX    TMP DP  RH WIND       PRES   REMARKS
WILLISTON      CLEAR     88  55  33 SE10      29.64F
DICKINSON      PTCLDY    79  63  58 SE8       29.70S
BEACH          N/A       75  59  58 SE9       29.69F
CROSBY         CLEAR     75  63  66 SE8       29.67S
TIOGA          CLEAR     77  59  54 SE9       29.73S
WATFORD CITY   CLEAR     82  59  46 SE10      29.65S HI  82
BISMARCK       CLEAR     79  66  65 E6        29.72S
GRAND FORKS    CLEAR     77  64  64 E6        29.73R
FARGO          CLEAR     75  66  74 E6        29.73F
BUFFALO SD     MOCLDY    82  54  38 SE15      29.67F
RAPID CITY     PTCLDY    75  63  66 N6        29.73F
$$

REGIONAL REPORTS...WYOMING/IDAHO/WASHINGTON
CITY           SKY/WX    TMP DP  RH WIND       PRES   REMARKS
GILLETTE       MOCLDY    82  36  19 S10       29.77S
SHERIDAN       CLOUDY    84  39  20 S3        29.73S
CODY           CLOUDY   N/A N/A N/A NW10G20   29.83S
YELLOWSTONE LA CLOUDY    61  43  52 CALM      30.08F
SALMON         CLOUDY    70  52  53 S8        29.82F
MULLAN PASS    CLOUDY    64  48  56 CALM      29.91S
SAND POINT     CLOUDY    72  52  49 NE9       29.71R
SPOKANE        MOCLDY    79  46  31 NE9       29.68S
$$

REGIONAL REPORTS...ALBERTA
CITY           SKY/WX    TMP DP  RH WIND       PRES   REMARKS
CALGARY        CLOUDY    68  52  57 SE5       29.73R
LETHBRIDGE     MOCLDY    66  57  73 VRB14G21   29.69S
MEDICINE HAT   CLOUDY    82  52  35 NE3       29.60S
EDMONTON       MOCLDY    66  52  61 W2        29.70S
WATERTON GATE  N/A       66  52  61 SW8        N/A
CARDSTON       N/A       70  50  49 SW9        N/A
MILK RIVER     N/A       77  45  32 W12        N/A
$$

REGIONAL REPORTS...SASKATCHEWAN
CITY           SKY/WX    TMP DP  RH WIND       PRES   REMARKS
SWIFT CURRENT  FAIR      79  55  44 W3        29.58S
REGINA         MOCLDY    77  63  62 SE12      29.63R
VAL MARIE      N/A       84  45  26 W9         N/A
ASSINIBOIA     N/A       70  59  68 N13        N/A
CORONACH       N/A       72  61  68 E5         N/A

$$



USA.gov is the U.S. government's official web portal to all federal, state and local government web resources and services.